Temperature
20 20 20 19 19 20 20 19 19 19 19 19 19 19 19 19 19 19 19 19 19 19 19 19 19 19 19 19 19 18 18 18 18 18 18 18 18 18 18 18 18 18 18
20 20 20 20 20 20 20 19 19 19 19 19 19 19 19 19 19 19 19 19 19 19 19 19 19 19 19 19 18 18 18 18 18 18 18 18 18 18 18 18 18 18 18
21 20 20 20 20 20 19 19 19 19 19 19 19 19 19 19 19 19 19 19 19 19 19 19 19 19 19 19 18 18 18 18 18 18 18 18 18 18 18 18 18 18 18
21 20 20 20 20 20 19 19 19 19 19 19 19 19 19 19 19 19 19 19 19 19 19 19 19 19 19 19 19 18 18 18 18 18 18 18 18 18 18 18 18 18 18
21 20 20 20 20 20 20 19 19 19 19 19 19 19 19 19 19 19 19 19 19 19 19 19 19 19 19 19 19 18 18 18 18 18 18 18 18 18 18 18 18 18 18
21 20 20 20 20 20 20 19 19 19 19 19 19 19 19 19 19 19 19 19 19 19 19 19 19 19 19 19 19 18 18 18 18 18 18 18 18 18 18 18 18 18 18
21 21 20 20 20 20 20 19 19 19 19 19 19 19 19 19 19 19 19 19 19 19 19 19 19 19 19 19 19 18 18 18 18 18 18 18 18 18 18 18 18 18 18
21 21 20 20 20 20 20 20 19 19 19 19 19 19 19 19 19 19 19 19 19 19 19 19 19 19 19 19 19 18 18 18 18 18 18 18 19 18 18 18 18 18 18
21 21 21 20 20 20 20 20 19 19 19 19 19 19 19 19 19 19 19 19 19 19 19 19 19 19 19 19 19 18 18 18 18 18 18 18 19 19 18 18 18 18 18
21 21 21 20 20 20 20 20 20 19 19 19 19 19 19 19 19 19 19 19 19 19 19 19 19 19 19 19 19 18 18 18 18 18 19 19 19 19 18 18 18 18 18
21 21 21 20 20 20 20 20 19 19 19 19 19 19 19 19 19 19 19 19 19 19 19 19 19 19 19 19 19 19 18 18 19 19 19 19 19 19 19 18 18 18 18
21 21 21 20 20 20 20 20 20 19 19 19 19 19 19 19 19 19 19 19 19 19 19 19 19 19 19 19 19 19 19 19 19 19 19 19 19 19 19 18 18 18 18
21 21 21 21 20 20 20 20 20 19 19 19 19 19 19 19 19 19 19 19 19 19 19 19 19 19 19 19 19 19 19 19 18 19 19 19 19 19 19 19 18 18 18
21 21 21 21 20 20 20 20 20 20 19 19 19 19 19 19 19 19 19 19 19 19 19 19 19 19 19 19 19 19 19 19 19 19 19 19 19 19 19 18 18 18 18
21 21 21 21 20 20 20 20 20 20 19 19 19 19 19 19 19 19 19 19 19 19 19 19 19 19 19 19 19 19 19 19 19 19 19 19 19 19 18 18 18 18 18
21 21 21 21 20 20 20 20 20 20 20 19 19 19 19 19 19 19 19 19 19 19 19 19 19 19 19 19 19 19 19 19 19 19 19 19 19 19 18 18 18 18 18
22 21 21 21 21 20 20 20 20 20 20 19 19 19 19 19 19 19 19 19 19 19 19 19 19 19 19 19 19 19 19 19 19 19 19 19 19 19 18 18 18 18 18
22 22 21 21 21 21 20 20 20 20 20 19 19 19 19 19 19 19 19 19 19 19 19 19 19 19 19 19 19 19 19 19 19 19 19 19 18 18 18 18 18 18 18
22 22 22 21 21 21 20 20 20 20 20 19 19 19 19 19 19 19 19 19 19 19 19 19 19 19 19 19 19 19 19 19 19 19 19 18 18 18 18 18 18 18 18
22 22 22 21 21 21 20 20 20 20 20 19 19 19 19 19 19 19 19 19 19 19 19 19 19 18 18 18 19 19 19 19 19 18 18 18 18 18 18 18 18 18 18
22 22 22 21 21 21 20 20 20 20 19 19 19 19 19 19 19 19 19 19 19 19 19 18 18 18 18 18 18 18 18 18 18 18 18 18 18 18 18 18 18 18 17
22 22 22 22 21 21 20 20 20 20 19 19 19 19 19 19 19 19 19 19 19 19 18 18 18 18 18 18 18 18 18 18 18 18 18 18 18 18 18 18 18 17 17
22 22 22 22 21 21 20 20 20 19 19 19 19 19 19 19 19 19 19 19 18 18 18 18 18 18 18 18 18 17 17 17 17 18 18 18 18 18 18 17 17 17 17
23 23 22 22 21 21 21 20 20 20 20 20 19 19 19 19 19 19 18 18 18 18 18 18 18 18 18 18 17 17 17 17 17 17 17 17 17 17 17 17 17 17 17
23 22 22 22 21 21 21 20 20 20 19 19 19 19 19 19 18 18 18 18 18 18 18 18 18 18 18 17 17 17 17 17 17 17 17 17 17 17 17 17 17 17 17
22 22 22 21 21 21 20 20 20 20 19 19 19 19 19 18 18 18 18 18 18 18 18 18 18 18 17 17 17 17 17 17 17 17 17 17 17 17 17 17 17 17 17
Wind_Speed
4 7 12 12 11 11 12 15 15 15 15 14 14 14 14 14 13 13 13 12 12 11 11 10 10 10 9 9 8 8 8 8 8 7 7 7 7 7 8 8 7 7 10
8 9 13 13 13 13 15 16 15 15 14 14 13 13 13 13 12 12 12 11 11 10 10 9 9 9 8 8 7 7 7 7 7 6 6 6 6 6 8 7 7 6 8
10 10 13 13 13 14 15 15 14 14 14 13 13 12 12 12 11 11 11 10 10 10 9 9 8 8 8 8 7 7 6 7 6 6 6 5 5 6 7 7 7 7 8
11 10 12 14 14 14 14 14 14 14 13 13 12 11 11 10 10 10 10 9 9 9 8 8 7 7 7 7 7 7 6 6 6 6 5 5 5 6 7 7 8 8 8
10 10 12 14 14 14 13 13 13 13 13 12 11 11 10 9 9 9 8 8 8 8 7 7 7 7 6 6 6 7 6 7 6 6 5 6 6 7 8 8 8 8 8
9 10 12 15 14 14 13 13 13 12 12 11 11 10 10 9 9 9 8 8 7 7 7 7 7 7 6 6 6 6 6 6 7 6 6 7 7 8 9 9 9 9 8
9 9 12 15 14 14 13 13 13 12 11 10 10 9 9 8 8 8 8 7 7 7 7 7 7 7 7 7 7 7 6 7 7 6 7 7 9 10 11 10 10 10 9
11 9 11 15 14 13 13 13 12 11 10 10 9 8 8 8 7 7 7 7 7 7 7 7 8 9 9 8 8 8 7 7 7 7 7 8 9 11 11 10 10 10 10
10 9 8 10 12 13 13 12 12 11 10 9 8 7 7 7 6 7 6 7 7 7 7 7 8 9 10 9 9 9 8 7 6 5 7 7 10 11 12 12 12 11 10
8 7 7 8 8 9 10 12 12 12 11 9 8 7 6 6 5 6 6 6 6 7 7 7 8 8 9 10 10 9 8 7 6 6 6 7 10 11 12 12 12 12 11
8 6 6 6 7 8 8 10 11 10 10 9 7 7 6 4 4 5 5 6 7 7 7 8 8 8 9 9 10 9 8 5 5 5 7 9 12 11 11 11 12 12 12
9 8 7 7 6 7 7 7 7 7 7 6 5 5 4 4 4 4 5 7 7 7 7 7 8 8 8 7 8 8 5 5 5 5 7 11 13 12 11 11 12 13 13
11 9 8 8 7 7 4 6 5 5 5 5 5 4 4 4 4 4 4 4 5 6 5 6 6 5 5 5 5 5 5 5 5 6 8 11 13 13 12 12 12 12 13
10 9 8 8 7 6 5 5 5 4 4 4 5 5 4 2 2 2 2 2 3 3 3 3 3 4 4 5 4 4 4 3 5 6 8 11 12 13 13 12 13 13 12
9 9 9 8 7 6 5 4 5 4 4 5 5 5 4 3 2 2 2 2 3 3 3 2 3 3 3 3 3 3 3 4 5 6 6 10 11 12 12 12 13 13 13
8 9 8 8 7 6 5 4 4 4 5 4 4 4 5 4 2 2 1 1 2 3 3 3 3 3 2 2 2 2 3 4 5 6 6 9 11 11 12 12 12 13 13
9 9 8 8 7 6 6 5 4 4 4 3 4 4 4 4 2 2 1 1 2 2 2 1 1 1 1 2 2 3 2 4 5 6 7 7 8 10 11 11 11 12 12
10 9 8 8 7 6 5 4 3 3 3 3 3 3 3 3 2 2 1 1 1 0 0 1 0 0 1 1 2 2 2 2 4 5 6 6 6 7 8 10 11 11 12
10 9 8 7 7 6 5 4 3 3 2 2 3 2 2 2 2 2 1 1 1 0 0 1 0 1 1 1 2 2 2 2 2 3 4 4 5 6 6 8 10 10 10
9 8 8 7 6 5 4 3 3 2 1 1 2 2 2 2 2 2 1 1 0 0 0 0 1 1 1 1 2 2 2 2 2 2 3 3 4 5 5 5 5 7 8
9 8 7 7 6 5 3 3 3 2 1 1 1 2 2 2 2 2 1 0 0 0 1 1 1 0 1 0 1 2 3 2 1 2 2 2 2 3 4 4 4 4 4
10 9 8 8 7 6 4 3 3 3 2 2 1 1 2 2 2 2 2 1 1 0 0 1 1 0 1 0 1 1 2 3 3 1 1 2 2 2 3 4 5 5 4
10 10 9 8 7 7 5 4 2 2 1 1 0 1 1 2 2 1 2 2 1 1 1 2 1 2 2 2 1 3 2 2 3 3 2 1 2 2 2 3 4 5 5
10 10 8 8 7 7 6 6 5 3 2 3 2 1 1 1 2 1 1 2 2 1 1 2 1 1 2 2 2 1 3 3 2 2 2 2 3 3 3 3 3 4 5
9 8 8 7 6 6 6 6 5 3 2 1 1 0 1 1 1 1 1 1 1 1 1 1 1 1 1 2 2 1 1 1 2 2 3 3 2 3 4 3 3 3 5
7 7 6 7 6 6 6 6 6 5 4 3 2 1 1 1 1 1 1 1 1 1 1 1 1 1 1 2 2 2 2 2 2 2 3 3 3 3 3 2 3 3 4
Wind_Direction
150 150 138 132 128 126 132 133 127 124 122 121 120 120 120 123 125 126 129 130 131 135 138 143 148 148 146 146 146 147 148 151 154 155 156 158 157 155 152 151 150 144 146
150 145 136 134 129 122 125 131 130 128 129 127 125 126 126 126 127 129 132 133 135 138 142 144 147 150 152 152 151 152 155 157 162 168 172 170 168 165 162 160 158 152 151
139 139 137 135 131 128 127 130 132 131 129 129 127 128 128 129 131 134 135 139 143 145 148 149 149 150 154 160 165 167 170 171 176 181 184 177 179 178 169 166 167 166 163
138 139 137 136 134 132 133 134 133 133 131 131 131 130 132 132 132 134 140 146 151 154 155 156 157 158 159 166 173 178 184 190 192 193 191 188 189 186 182 179 176 174 171
134 140 141 139 137 137 137 136 135 136 136 135 136 137 139 140 142 143 146 152 157 160 162 166 167 168 170 173 177 185 194 204 206 208 198 194 197 198 196 193 186 181 182
136 144 145 142 141 140 139 138 138 139 141 142 142 144 146 147 151 154 156 161 166 171 175 177 177 179 182 183 188 195 204 212 209 201 198 196 198 203 200 197 194 190 188
140 144 144 142 143 143 144 144 142 142 145 146 148 151 153 157 161 162 166 174 179 183 187 188 189 193 199 200 206 212 217 218 203 202 199 201 202 207 206 200 194 191 189
144 146 146 147 146 146 146 150 149 149 150 150 154 158 161 163 170 173 179 186 189 192 196 201 204 208 214 215 218 225 229 223 210 209 206 208 209 205 202 199 195 196 195
141 142 143 148 151 153 152 152 153 155 156 156 160 164 167 173 178 182 190 199 201 201 205 211 216 218 223 226 230 233 233 225 210 209 214 210 209 205 201 201 198 200 200
141 144 146 148 151 154 156 157 158 160 163 164 166 167 165 169 177 184 191 204 207 210 214 220 227 229 231 235 238 240 237 233 224 217 210 208 210 206 204 203 200 202 204
148 157 157 156 154 157 160 162 164 164 169 171 172 173 174 184 196 203 208 212 216 221 226 232 239 244 241 242 242 239 237 228 208 212 211 210 205 203 204 205 203 204 207
164 171 171 166 164 166 169 163 170 172 179 181 186 189 188 194 209 218 222 224 226 230 238 244 248 252 251 247 241 238 234 219 205 210 214 211 203 204 206 208 208 208 209
171 169 172 174 172 173 170 161 174 185 188 195 201 208 206 208 224 232 230 235 238 240 244 247 253 251 248 244 234 229 227 221 212 216 211 210 209 209 209 209 208 208 211
165 171 170 170 170 175 166 167 174 185 192 201 210 208 194 191 208 211 216 231 237 240 241 246 249 249 249 249 237 223 208 211 212 213 215 216 215 214 212 211 207 206 207
157 164 168 169 167 167 160 169 170 182 189 195 200 202 183 176 197 200 215 226 241 236 225 225 241 243 241 240 238 214 203 208 208 204 210 211 214 216 215 212 210 210 210
155 159 158 158 160 156 158 165 167 178 181 178 185 194 183 176 181 190 203 219 233 229 218 208 225 237 243 231 241 220 204 199 198 201 204 208 210 214 216 214 213 214 214
156 153 150 150 149 149 150 157 157 161 161 165 179 190 180 181 177 177 202 226 242 246 231 208 236 255 256 252 249 241 215 195 192 198 202 203 208 213 216 215 214 215 215
152 150 153 150 146 144 143 140 136 144 146 159 167 170 182 195 186 172 203 238 255 244 209 218 238 286 283 267 250 252 239 202 199 194 191 199 206 216 222 221 220 222 221
155 152 152 142 150 151 143 134 126 122 133 151 148 159 184 201 192 164 192 249 258 139 238 244 215 201 273 292 261 248 243 231 215 202 192 198 208 216 219 224 227 229 226
151 151 150 145 156 152 136 120 112 104 121 124 147 163 179 203 187 159 168 276 332 63 332 307 240 249 234 269 284 284 256 242 209 200 205 200 201 208 212 217 223 234 231
151 153 153 150 158 150 139 140 142 150 168 159 177 174 194 210 177 138 148 126 24 196 229 230 205 259 281 6 28 340 331 299 256 219 196 185 198 205 194 197 200 206 227
162 161 158 161 165 163 163 158 154 156 175 180 189 174 194 183 168 154 159 180 193 162 295 270 200 178 271 158 131 63 345 337 330 281 222 204 205 197 198 202 198 191 205
166 167 169 169 166 165 154 131 122 96 58 57 222 232 223 169 160 152 158 175 190 183 222 252 208 182 239 264 167 142 159 241 300 311 281 239 213 213 223 201 198 197 200
177 172 166 168 166 164 154 149 154 166 184 213 213 234 267 207 179 176 163 171 186 197 219 253 229 206 191 242 268 217 199 186 188 285 312 282 237 227 226 219 212 208 205
172 171 169 163 163 162 163 164 164 175 191 185 147 221 282 285 245 209 182 177 184 205 217 253 265 224 190 209 233 247 246 233 188 194 270 292 292 254 234 223 213 213 207
159 161 162 160 165 166 167 169 169 170 168 158 173 202 244 263 276 278 203 195 203 209 219 247 256 237 239 224 227 212 204 213 218 199 232 262 272 271 251 230 220 218 212
Height
1511 1510 1510 1510 1508 1504 1501 1506 1510 1512 1514 1516 1517 1518 1520 1521 1522 1523 1524 1525 1526 1527 1528 1529 1530 1531 1532 1533 1534 1534 1535 1536 1537 1538 1538 1539 1539 1540 1540 1540 1541 1541 1542
1510 1510 1510 1510 1509 1506 1503 1507 1511 1513 1515 1517 1518 1519 1520 1521 1523 1524 1525 1526 1527 1528 1528 1529 1530 1531 1532 1533 1534 1534 1535 1536 1537 1538 1538 1538 1539 1540 1540 1540 1541 1541 1542
1510 1510 1511 1511 1511 1510 1510 1511 1513 1515 1516 1517 1519 1520 1521 1522 1523 1524 1525 1526 1527 1528 1529 1530 1530 1531 1532 1533 1533 1534 1535 1536 1537 1537 1538 1538 1538 1539 1539 1540 1540 1541 1541
1511 1511 1511 1512 1512 1512 1512 1514 1515 1516 1517 1518 1519 1520 1522 1523 1524 1525 1525 1526 1527 1528 1529 1529 1530 1531 1532 1532 1533 1534 1535 1535 1536 1536 1537 1537 1538 1538 1539 1539 1540 1540 1541
1511 1512 1512 1512 1513 1513 1514 1515 1516 1517 1518 1519 1520 1521 1522 1523 1524 1525 1525 1526 1527 1528 1529 1529 1530 1531 1531 1532 1533 1534 1534 1535 1535 1536 1536 1537 1537 1538 1538 1539 1539 1540 1540
1512 1512 1513 1513 1513 1514 1515 1516 1517 1518 1519 1520 1521 1522 1523 1523 1524 1525 1526 1526 1527 1528 1528 1529 1530 1530 1531 1531 1532 1533 1534 1534 1535 1535 1536 1536 1536 1537 1537 1538 1538 1539 1539
1512 1513 1513 1514 1514 1515 1516 1517 1518 1519 1520 1521 1522 1523 1524 1524 1525 1525 1526 1526 1527 1528 1528 1529 1529 1529 1530 1530 1531 1532 1533 1533 1534 1534 1535 1535 1535 1536 1536 1537 1537 1538 1538
1513 1514 1514 1515 1516 1516 1517 1518 1519 1520 1521 1522 1523 1524 1524 1525 1525 1525 1526 1526 1527 1527 1528 1528 1528 1529 1529 1530 1530 1531 1532 1533 1533 1533 1534 1534 1534 1535 1535 1536 1536 1537 1537
1515 1515 1515 1516 1517 1517 1518 1519 1520 1521 1522 1523 1524 1524 1525 1525 1526 1526 1526 1526 1527 1527 1527 1527 1528 1528 1528 1529 1530 1531 1531 1532 1532 1532 1532 1533 1533 1533 1534 1534 1534 1535 1535
1516 1516 1517 1517 1518 1518 1519 1520 1521 1521 1522 1523 1524 1525 1525 1525 1526 1526 1526 1526 1526 1526 1527 1527 1527 1527 1528 1528 1529 1530 1530 1530 1531 1531 1531 1531 1532 1532 1532 1533 1533 1533 1534
1517 1517 1518 1518 1518 1519 1520 1521 1521 1522 1523 1524 1525 1525 1525 1525 1526 1526 1526 1526 1526 1526 1526 1527 1527 1527 1527 1527 1528 1528 1529 1529 1530 1530 1530 1530 1531 1531 1531 1531 1532 1532 1532
1516 1517 1518 1519 1519 1520 1520 1521 1522 1523 1523 1524 1525 1525 1525 1525 1525 1525 1525 1525 1525 1526 1526 1526 1526 1526 1526 1526 1526 1527 1527 1528 1528 1528 1529 1529 1529 1529 1529 1530 1530 1530 1530
1516 1517 1518 1519 1519 1520 1521 1522 1522 1523 1523 1524 1525 1525 1525 1525 1525 1525 1525 1525 1525 1525 1525 1525 1525 1525 1525 1524 1525 1525 1526 1526 1527 1527 1527 1527 1528 1528 1528 1528 1528 1528 1529
1516 1517 1518 1519 1520 1520 1521 1522 1522 1523 1523 1524 1524 1525 1525 1525 1525 1525 1524 1524 1524 1524 1524 1524 1524 1524 1524 1523 1523 1524 1524 1524 1525 1525 1525 1525 1526 1526 1526 1527 1527 1527 1527
1515 1516 1517 1519 1519 1520 1521 1522 1522 1523 1523 1524 1524 1524 1524 1524 1524 1524 1524 1524 1524 1524 1524 1524 1523 1523 1523 1522 1522 1522 1522 1523 1523 1523 1523 1524 1524 1524 1525 1525 1525 1525 1525
1514 1516 1517 1518 1519 1520 1521 1521 1522 1522 1523 1523 1524 1524 1524 1524 1524 1524 1524 1523 1523 1523 1523 1523 1523 1522 1522 1522 1521 1521 1521 1522 1522 1522 1522 1522 1523 1523 1523 1523 1523 1524 1524
1514 1515 1516 1517 1519 1520 1520 1521 1522 1522 1522 1523 1524 1524 1524 1524 1524 1523 1523 1523 1523 1523 1523 1522 1522 1522 1521 1521 1521 1521 1521 1520 1520 1521 1521 1521 1521 1521 1521 1522 1522 1521 1522
1513 1515 1516 1517 1518 1519 1520 1521 1521 1522 1522 1523 1523 1523 1523 1523 1523 1523 1523 1522 1522 1522 1522 1521 1521 1521 1520 1520 1520 1520 1520 1520 1519 1519 1519 1520 1519 1519 1520 1520 1520 1520 1520
1513 1514 1515 1516 1518 1519 1520 1521 1521 1522 1522 1522 1523 1523 1523 1523 1523 1523 1522 1522 1522 1521 1521 1520 1520 1520 1519 1519 1519 1519 1519 1519 1518 1518 1518 1518 1518 1518 1518 1518 1517 1517 1517
1512 1514 1515 1516 1517 1518 1519 1520 1521 1521 1521 1522 1522 1522 1522 1523 1522 1522 1522 1521 1521 1520 1520 1520 1519 1519 1518 1518 1518 1517 1517 1517 1517 1516 1516 1516 1516 1515 1516 1516 1515 1515 1515
1511 1513 1514 1514 1515 1517 1517 1518 1519 1520 1521 1521 1521 1521 1522 1522 1522 1521 1521 1520 1520 1519 1519 1519 1518 1518 1517 1517 1516 1516 1516 1515 1515 1515 1514 1514 1514 1514 1513 1513 1513 1513 1513
1510 1511 1512 1513 1514 1515 1516 1517 1518 1520 1520 1521 1521 1520 1521 1521 1521 1520 1520 1519 1519 1518 1518 1517 1517 1516 1516 1516 1515 1514 1514 1514 1513 1513 1513 1512 1512 1512 1511 1511 1511 1510 1510
1508 1510 1511 1512 1513 1514 1516 1517 1518 1519 1519 1520 1519 1519 1519 1519 1519 1519 1518 1518 1517 1517 1516 1516 1515 1515 1514 1515 1514 1514 1513 1512 1512 1511 1511 1511 1510 1510 1509 1509 1509 1508 1507
1506 1508 1510 1511 1512 1514 1515 1515 1516 1517 1517 1518 1518 1518 1518 1518 1518 1518 1517 1517 1516 1515 1515 1514 1514 1513 1513 1512 1512 1512 1512 1511 1511 1509 1509 1509 1509 1508 1507 1507 1506 1505 1505
1505 1507 1508 1510 1512 1513 1514 1515 1515 1516 1516 1517 1517 1517 1517 1517 1516 1516 1516 1515 1514 1513 1513 1512 1512 1511 1511 1510 1510 1510 1510 1510 1509 1508 1507 1506 1506 1506 1505 1504 1504 1503 1502
1503 1506 1508 1509 1510 1512 1513 1513 1514 1514 1515 1515 1515 1515 1515 1515 1515 1514 1514 1513 1512 1511 1510 1510 1509 1509 1509 1508 1508 1507 1507 1507 1506 1505 1505 1504 1503 1503 1502 1502 1501 1500 1500